#timestamp,LO_Frequency,Hit,StdDev 
1633132815.7,286046124.1,N
1633132835.5,286046123.5,N
1633132855.3,286046123.1,N
1633132875.2,286046123.6,N
1633132895.0,286046123.3,N
1633132895.9,286046123.3,Y
1633132915.8,286047004.1,P
1633132935.6,286047004.3,N
1633132955.4,286047003.1,N
1633132975.3,286047003.4,N
1633132995.1,286047005.7,N
1633133015.8,286047005.5,N
1633133035.7,286047005.4,N
1633133055.5,286047005.8,N
1633133075.4,286047005.2,N
1633133095.2,286047004.6,N
1633133115.0,286047005.3,N
1633133115.9,286047005.3,N
1633133135.8,286047005.0,N
1633133155.6,286047005.2,N
1633133175.5,286047004.9,N
1633133195.3,286047007.3,N
1633133215.1,286047004.9,N
1633133235.9,286047007.0,N
1633133255.7,286047006.2,N
1633133275.5,286047008.7,N
1633133295.4,286047008.5,N
1633133315.2,286047008.5,N
1633133335.1,286047008.5,N
1633133336.0,286047008.5,N
1633133355.8,286047008.0,N
1633133375.6,286047008.5,N
1633133395.5,286047009.0,N
1633133415.3,286047010.2,N
1633133435.2,286047012.4,N
1633133455.9,286047011.8,N
1633133475.7,286047009.7,Y
1633133495.6,286047005.7,P
1633133515.4,286047006.9,P
1633133535.3,286047004.9,P
1633133555.1,286047003.3,Y
1633133556.0,286047003.3,P
1633133575.8,286046998.2,N
1633133595.7,286046999.0,N
1633133615.5,286046999.2,N
1633133635.4,286046999.1,N
1633133655.2,286046998.7,N
1633133675.0,286046998.4,N
1633133675.9,286046998.4,N
1633133695.8,286046997.0,N
1633133715.6,286046999.0,N
1633133735.4,286046999.1,N
1633133755.3,286046998.6,N
1633133775.1,286046999.2,N
1633133795.9,286046999.2,N
1633133815.7,286046999.1,N
1633133835.5,286046998.3,N
1633133855.4,286046999.5,N
1633133875.2,286046999.4,N
1633133895.1,286046998.3,N
1633133896.0,286046998.3,N
1633133915.8,286046998.8,N
1633133935.6,286046999.3,N
1633133955.5,286047001.0,N
1633133975.3,286047002.7,N
1633133995.2,286047000.1,N
1633134015.9,286047001.7,N
1633134035.7,286047002.4,N
1633134055.6,286047002.2,N
1633134075.4,286047002.3,N
1633134095.2,286047001.7,N
1633134115.1,286047001.4,N
1633134116.0,286047001.4,N
1633134135.8,286047003.9,N
1633134155.7,286047001.6,N
1633134175.5,286047003.6,N
1633134195.3,286047003.3,N
1633134215.2,286047003.9,N
1633134235.0,286047003.0,N
1633134235.9,286047003.0,N
1633134255.7,286047005.4,N
1633134275.6,286047005.6,N
1633134295.4,286047005.3,N
1633134315.3,286047005.9,N
1633134335.1,286047005.5,N
1633134366.0,286047005.9,E
1633134375.0,286047004.4,N
1633134375.9,286047004.4,P
1633134395.8,286047001.0,P
1633134415.6,286046999.9,N
1633134435.4,286047000.1,N
1633134455.3,286047002.5,N
1633134475.1,286046999.9,N
1633134495.9,286046999.9,N
1633134515.7,286046999.8,N
1633134535.5,286047002.6,N
1633134555.4,286047002.3,N
1633134575.2,286047002.6,N
1633134595.0,286047002.8,N
1633134595.9,286047002.8,N
1633134615.8,286047001.2,N
1633134635.6,286047000.8,N
1633134655.5,286047001.6,N
1633134675.3,286047001.8,N
1633134695.1,286047002.6,N
1633134715.9,286047001.9,N
1633134735.7,286047001.4,N
1633134755.5,286047005.9,Y
1633134775.4,286047002.1,P
1633134795.2,286047002.5,P
1633134815.1,286047001.3,P
1633134816.0,286047001.3,N
1633134835.8,286047002.5,Y
1633134855.6,286046998.3,P
1633134875.5,286046998.5,N
1633134895.3,286046998.7,N
1633134915.1,286046998.4,N
1633134935.9,286046998.7,N
1633134955.7,286047000.1,N
1633134975.6,286047000.3,N
1633134995.4,286046999.7,N
1633135015.2,286047002.3,N
1633135035.1,286047002.4,N
1633135036.0,286047002.4,N
1633135055.8,286047002.5,N
1633135075.7,286047002.0,N
1633135095.5,286047004.3,N
1633135115.3,286047002.0,N
1633135135.2,286047001.8,N
1633135155.0,286047001.7,N
1633135155.9,286047001.7,N
1633135175.7,286047001.9,N
1633135195.6,286047004.1,N
1633135215.4,286047005.4,Y
1633135235.3,286047004.4,P
1633135255.1,286047004.3,N
1633135275.8,286047003.1,N
1633135295.7,286047005.3,Y
1633135315.5,286047001.3,P
1633135335.4,286047002.0,N
1633135355.2,286047001.3,N
1633135375.0,286047004.4,Y
1633135375.9,286047004.4,P
1633135395.8,286047001.9,N
1633135415.6,286047002.2,N
1633135435.4,286047001.6,N
1633135455.3,286047001.8,N
1633135475.1,286047001.4,N
1633135495.9,286047002.1,N
1633135515.7,286047002.7,Y
1633135535.5,286047000.4,P
1633135555.4,286047002.3,N
1633135575.2,286047002.5,N
1633135595.1,286047003.9,Y
1633135596.0,286047003.9,P
1633135615.8,286047000.3,N
1633135635.6,286047002.7,N
1633135655.5,286047002.3,N
1633135675.3,286047000.9,N
1633135695.1,286047000.9,N
1633135715.9,286047000.3,N
1633135735.7,286047000.4,N
1633135755.6,286047000.9,N
1633135775.4,286047002.8,N
1633135795.2,286047002.4,N
1633135815.1,286047002.1,N
1633135816.0,286047002.1,N
1633135835.8,286047002.4,N
1633135855.6,286047002.4,N
1633135875.5,286047004.1,Y
1633135895.3,286047002.7,P
1633135915.2,286046999.9,N
1633135935.9,286046999.7,N
1633135955.7,286047002.6,N
1633135975.6,286047002.0,N
1633135995.4,286046999.8,N
1633136015.2,286047001.5,N
1633136035.1,286047004.2,Y
1633136036.0,286047004.2,P
1633136055.8,286047001.9,N
1633136075.7,286047001.8,N
1633136095.5,286047001.3,N
1633136115.3,286047003.9,Y
1633136135.2,286047000.2,P
1633136155.0,286047000.0,N
1633136155.9,286047000.0,N
1633136175.8,286047000.0,N
1633136195.6,286047002.3,N
1633136215.4,286047002.5,N
1633136235.3,286047001.6,N
1633136255.1,286047001.4,N
1633136275.8,286047002.6,N
1633136295.7,286047002.6,N
1633136315.5,286047002.0,N
1633136335.4,286047001.8,N
1633136355.2,286047001.6,N
1633136375.0,286047004.1,Y
1633136375.9,286047004.1,P
1633136395.8,286047001.3,N
